Theta_e
309 309 310 309 306 303 304 305 303 301 301 301 301 301 302 302 303 309 316 317 314 309 306 310 313 313 314 317 320 322 327 329 329 329 329 328 329 327 327 328 329 328 328 328 327
309 309 310 310 309 305 303 305 306 304 301 301 301 301 302 303 305 316 317 311 307 308 313 313 312 313 315 317 319 322 325 326 327 328 329 328 328 327 326 328 329 328 328 327 326
309 309 309 310 310 308 303 304 307 306 302 301 301 301 302 303 318 318 313 311 311 309 312 310 313 314 316 317 319 321 323 324 325 325 326 328 328 328 328 328 327 329 328 327 325
304 306 308 309 310 308 304 305 306 307 302 301 301 301 303 305 323 318 311 311 311 316 315 313 312 315 316 318 318 321 321 321 322 324 324 326 327 328 328 328 326 326 328 326 324
302 302 305 309 310 307 305 305 306 305 302 301 301 302 304 316 315 316 311 309 311 315 316 316 315 315 317 317 318 320 321 320 320 321 322 323 325 325 325 325 325 324 326 326 324
304 305 306 309 310 305 305 305 304 303 301 301 301 304 310 315 314 316 315 314 315 314 315 315 316 315 315 317 317 317 317 318 319 318 319 322 322 321 321 321 321 321 323 325 324
305 308 309 310 307 306 304 303 302 302 302 301 302 306 315 314 312 315 316 315 314 314 314 314 314 314 315 317 316 316 317 318 318 318 319 318 319 319 318 319 320 320 321 323 324
308 309 310 310 306 305 309 310 306 303 302 302 306 313 316 311 310 313 315 315 313 312 312 313 312 313 314 315 316 316 317 317 318 318 317 317 318 319 318 319 319 318 318 320 322
309 310 310 307 307 310 311 311 312 310 307 309 315 317 319 311 310 313 314 313 313 312 312 312 311 313 315 316 317 317 317 318 318 318 317 317 317 319 318 318 318 318 318 318 320
309 310 311 307 310 311 311 310 311 312 311 312 317 317 316 315 313 313 313 313 312 312 312 313 313 316 316 317 317 318 319 318 318 318 317 317 318 319 318 317 317 317 317 317 318
309 311 309 308 311 311 312 316 318 320 318 319 317 317 316 314 314 313 313 312 312 313 315 315 316 316 316 318 317 317 318 318 318 318 317 318 318 318 318 318 317 317 317 317 317
309 311 308 309 311 312 315 316 314 314 317 316 314 314 314 314 314 314 313 313 314 315 316 316 315 315 316 316 316 316 316 316 317 317 317 317 318 318 318 318 317 317 317 317 317
306 311 307 310 311 314 315 314 313 314 317 316 314 314 313 314 315 315 313 313 314 315 315 315 316 315 314 314 314 315 315 316 316 317 317 316 317 317 318 317 316 316 316 316 317
305 307 306 311 314 314 317 314 313 314 319 318 315 315 314 314 315 314 314 314 315 315 315 316 315 313 314 314 315 316 316 316 315 315 316 317 317 319 318 317 317 316 316 316 316
309 306 310 312 317 317 315 313 314 316 326 317 316 314 314 315 315 314 313 314 315 316 315 315 315 314 314 315 315 315 315 315 315 315 316 316 317 317 318 317 317 317 316 316 317
311 311 311 315 315 314 313 313 316 324 324 318 315 315 315 314 314 314 314 313 314 316 316 316 315 315 315 314 315 314 315 315 315 316 317 317 317 317 318 317 317 316 315 315 317
311 312 310 310 315 314 313 315 323 323 318 317 316 316 316 316 316 316 316 317 317 317 317 317 316 316 315 314 314 315 315 316 317 318 318 317 316 317 318 317 317 316 315 315 316
305 312 315 312 314 314 315 319 322 320 318 317 315 316 316 316 317 317 317 317 317 317 317 317 317 318 317 315 315 316 317 319 321 319 317 317 317 317 317 316 315 315 315 315 316
302 313 316 316 313 314 316 321 321 320 316 315 315 316 317 317 316 316 316 316 315 316 319 318 318 316 316 316 315 315 316 316 317 317 318 318 317 318 317 316 316 316 315 315 315
305 315 316 315 313 314 319 319 318 316 315 314 315 316 316 316 316 316 315 315 315 315 315 315 317 317 316 315 315 315 316 319 318 317 317 316 317 317 318 317 317 317 316 316 316
315 315 317 313 313 316 320 319 317 315 314 313 314 315 315 315 315 315 315 315 315 314 315 314 315 316 316 317 316 315 316 316 317 317 320 319 318 318 318 318 317 317 316 315 316
313 315 316 310 314 317 316 315 311 311 311 312 314 314 315 315 315 314 315 315 313 313 313 314 316 316 314 315 316 316 317 318 321 319 316 316 316 317 317 317 316 316 316 316 316
311 312 313 309 317 315 312 312 311 311 312 313 314 314 314 314 314 313 314 313 312 312 314 315 317 319 316 316 314 313 313 314 316 319 318 319 320 318 317 317 316 317 316 316 316
310 314 312 310 310 311 312 312 312 311 311 311 312 312 313 313 313 314 313 312 312 311 311 312 313 314 315 315 315 316 314 315 315 318 315 316 316 317 318 317 317 316 316 316 315
311 313 310 311 311 310 310 311 311 311 311 309 311 312 311 311 311 311 311 312 312 312 311 312 314 314 314 314 314 314 314 314 314 314 315 316 316 316 316 317 317 316 316 316 316
308 309 308 309 310 310 308 311 310 309 309 309 309 309 311 311 311 311 311 311 312 311 312 312 316 314 315 313 312 312 312 312 313 315 315 316 317 317 317 316 317 316 316 316 315
305 306 307 310 310 309 310 309 307 307 307 307 309 310 310 310 309 309 309 310 311 311 312 314 315 314 315 312 313 313 314 315 317 315 315 318 317 316 316 316 316 315 314 314 314
Wind_Speed
17 16 16 15 14 13 11 10 9 8 8 8 8 8 9 9 10 10 10 10 9 13 10 8 10 13 15 21 24 24 18 22 28 26 20 21 15 15 22 31 13 12 12 11 9
17 18 17 16 15 13 12 10 10 9 8 8 7 7 7 10 10 10 11 10 6 4 4 9 13 13 19 19 25 22 17 29 27 22 23 21 23 20 17 25 29 24 18 13 8
17 17 17 17 15 14 12 11 10 10 9 7 6 5 6 8 10 7 7 4 4 3 3 8 11 14 20 24 25 25 25 25 28 33 32 25 14 24 21 16 23 26 22 11 16
20 18 16 16 15 14 12 11 11 10 9 7 5 4 4 4 2 5 7 5 4 2 3 4 10 15 18 19 25 25 29 28 32 36 23 21 16 26 18 24 13 15 21 14 18
21 19 16 13 14 13 12 10 11 10 7 6 5 3 3 7 9 7 8 5 3 1 5 6 10 13 16 15 21 20 25 27 26 26 27 22 22 24 26 23 15 18 29 31 21
22 20 15 12 11 12 11 10 9 7 5 4 4 4 4 14 3 6 8 6 4 4 7 7 6 6 12 14 15 17 18 24 27 20 27 22 22 28 30 29 25 22 22 24 22
21 17 13 10 9 10 10 7 5 4 3 3 3 4 9 9 5 9 11 8 6 6 7 6 7 9 6 10 15 14 15 16 20 19 19 21 25 27 29 27 23 19 24 22 24
18 15 11 8 8 7 7 6 4 2 2 2 2 3 9 7 8 10 10 9 8 8 9 8 9 13 15 14 8 14 17 17 21 23 23 21 23 22 27 32 18 23 25 20 20
16 12 8 6 4 4 6 7 3 1 1 1 2 5 8 5 11 11 11 8 7 7 8 9 10 15 15 12 14 17 15 20 17 5 9 19 20 24 9 10 15 17 18 18 14
17 10 6 3 4 3 3 5 4 2 1 1 6 7 8 8 11 9 11 10 9 8 10 11 13 13 13 14 14 14 18 16 10 15 12 15 19 18 15 15 18 20 20 18 15
16 9 4 3 4 5 3 5 3 3 8 11 2 9 4 6 8 12 12 11 12 12 14 18 12 14 16 16 15 14 16 13 7 10 5 14 17 18 19 21 20 21 22 21 20
16 9 3 4 4 6 8 5 5 6 10 8 8 11 9 5 10 12 12 14 14 14 16 10 14 16 17 7 10 14 16 16 15 10 9 16 19 19 18 18 22 22 24 22 19
15 8 2 4 3 4 2 4 6 7 8 8 4 6 10 12 12 13 15 16 15 14 14 14 17 10 3 11 14 15 16 15 14 9 10 18 23 24 26 29 21 20 21 18 19
15 8 3 4 2 2 2 7 8 4 6 13 10 6 8 10 12 13 13 15 13 16 15 11 12 3 10 13 12 15 12 12 10 10 12 2 12 9 7 9 10 10 9 13 14
12 7 3 3 2 6 6 9 4 2 5 5 6 4 5 15 5 15 11 13 15 16 9 15 11 10 14 13 7 12 2 9 13 14 16 20 12 15 18 16 12 9 10 9 9
8 4 3 6 5 5 8 7 2 7 4 6 5 7 13 16 15 10 10 14 17 16 18 17 15 11 12 14 13 10 10 15 17 15 16 20 18 14 13 15 16 9 8 6 7
10 6 5 4 7 10 6 5 7 7 4 3 5 7 12 12 12 14 14 17 15 17 18 21 21 21 18 15 15 13 13 12 15 13 14 5 6 12 8 6 5 3 5 6 9
14 10 8 4 6 8 4 9 8 3 6 4 9 13 15 16 16 13 17 15 19 21 18 17 18 18 18 17 16 12 14 11 8 11 5 11 7 11 9 11 3 7 8 7 10
14 7 6 5 7 6 11 10 11 8 5 8 14 17 17 11 5 14 13 17 18 4 10 12 12 7 12 13 15 12 10 10 13 19 14 16 16 12 11 8 7 8 8 6 10
8 5 7 7 7 6 10 13 11 1 7 11 14 11 15 15 10 10 14 6 9 7 10 16 12 9 7 10 13 12 9 6 8 13 18 16 17 13 20 17 9 6 6 5 7
7 7 2 5 6 10 9 12 8 8 7 7 12 16 17 19 17 17 16 8 10 8 5 13 12 15 8 11 18 11 16 16 16 10 6 11 6 11 1 5 2 4 6 9 14
6 5 2 5 10 6 7 6 5 12 11 13 12 14 16 14 16 17 17 5 9 11 11 9 7 12 19 14 16 15 16 15 6 14 12 14 17 12 9 5 4 8 17 16 13
12 8 3 5 4 7 12 10 11 10 12 6 10 13 14 14 15 15 8 6 7 9 7 5 4 7 12 13 13 13 16 17 16 14 21 14 13 2 9 9 13 17 17 17 17
9 4 2 2 2 6 10 12 6 2 10 9 10 14 13 15 13 5 12 2 5 6 4 7 11 15 14 14 3 7 11 12 11 10 16 19 23 21 16 15 17 21 22 23 24
6 5 3 6 8 10 10 12 12 7 3 13 8 8 8 11 14 13 9 8 8 10 11 9 16 18 21 21 18 17 19 19 20 19 19 22 24 22 21 20 21 20 21 22 21
10 7 8 20 10 11 6 8 7 9 9 11 12 12 8 11 13 16 17 14 11 8 12 5 9 14 16 17 17 18 18 19 21 23 24 25 26 25 33 21 20 21 23 20 27
9 8 8 11 8 10 6 8 10 10 8 7 9 11 10 12 13 15 16 17 13 7 9 6 5 6 13 10 12 12 19 14 21 16 16 21 21 17 20 18 20 23 24 27 33
Wind_Direction
334 334 333 328 325 319 313 311 306 298 290 289 295 303 308 307 297 298 267 250 239 262 244 232 242 236 232 235 232 231 245 245 240 247 247 248 211 206 235 244 250 249 290 301 317
330 327 326 325 321 317 308 303 298 294 284 282 290 301 309 312 300 275 244 259 262 249 214 232 237 227 228 228 229 228 237 243 255 248 249 252 246 199 215 240 234 246 252 284 296
332 330 324 320 318 313 305 297 293 293 281 272 278 294 307 313 297 142 214 130 86 128 272 244 242 234 237 230 226 222 241 250 247 256 266 262 243 247 209 225 243 244 247 272 293
332 328 323 318 315 312 304 295 291 290 277 263 256 268 287 280 307 162 167 129 104 125 248 253 232 231 240 236 229 233 245 250 257 267 270 263 262 266 227 243 252 252 258 279 282
338 333 325 319 315 312 307 298 292 288 270 248 239 237 241 234 251 197 170 154 159 234 241 239 242 237 243 241 240 236 246 251 255 267 267 259 251 261 258 249 247 258 243 246 275
339 335 328 320 318 312 307 302 293 283 259 244 229 225 251 255 168 187 178 194 207 235 242 243 269 286 287 270 256 239 256 254 257 246 252 255 251 254 250 256 251 254 256 250 246
341 338 333 323 322 320 322 320 304 271 234 214 224 253 268 243 196 197 194 205 225 233 248 247 266 257 293 258 247 260 265 260 258 244 245 248 250 247 254 254 249 245 249 249 238
347 344 336 330 333 345 349 341 318 285 232 195 221 254 259 215 208 200 205 219 230 236 247 258 257 263 268 269 250 248 244 252 239 224 232 236 255 251 247 233 242 248 252 252 239
351 349 345 341 4 17 26 23 13 8 111 167 33 217 256 235 204 203 209 223 220 236 244 252 252 249 248 243 244 225 253 234 243 162 236 223 248 256 179 212 241 248 245 240 232
351 1 1 27 32 39 22 18 23 42 223 240 252 240 240 221 185 201 207 223 235 239 243 233 239 238 224 239 243 247 221 235 255 171 212 242 237 254 193 225 239 238 244 228 228
357 3 38 90 64 27 1 333 259 194 227 270 295 266 256 215 217 210 211 218 235 239 253 217 243 240 248 240 254 303 286 294 255 225 216 265 265 258 246 229 238 243 238 239 228
358 3 41 120 85 66 37 334 6 321 296 230 249 250 242 231 215 217 204 226 216 246 242 245 244 252 270 294 275 261 261 257 262 260 264 273 271 269 261 256 255 248 241 237 232
358 359 37 133 102 57 36 12 331 313 264 179 229 236 203 207 229 214 211 238 254 251 252 254 286 354 285 246 243 250 259 263 270 287 293 269 263 258 245 243 248 250 243 239 238
4 8 106 125 56 280 221 337 331 286 271 150 207 188 196 213 232 231 230 246 239 252 260 253 270 245 230 240 258 263 271 236 282 268 265 356 283 307 177 213 211 201 199 209 220
11 25 120 307 326 298 297 323 299 285 279 120 145 130 191 215 13 205 223 240 255 261 224 266 244 216 256 255 274 280 8 273 263 268 275 263 249 262 242 183 178 188 176 190 200
331 1 13 341 311 296 313 299 295 235 248 161 194 225 215 217 244 246 208 235 270 272 266 252 249 255 273 300 303 270 276 257 250 249 250 251 246 246 192 196 175 182 204 202 212
306 291 304 280 298 308 302 243 245 254 81 191 260 213 258 274 251 236 247 233 232 240 241 249 246 232 218 243 259 253 250 258 245 221 239 192 201 243 84 136 120 238 263 251 201
316 270 286 268 298 308 278 239 259 301 303 32 289 279 273 277 273 256 253 257 257 261 263 280 269 228 242 217 249 233 281 277 273 282 295 152 225 235 211 154 251 257 247 264 253
323 276 270 261 300 295 263 246 256 354 11 314 311 274 270 246 230 296 269 266 280 307 269 287 290 30 234 246 225 233 252 304 293 283 275 273 284 152 175 185 199 234 241 274 258
339 268 254 257 298 275 253 264 296 346 302 301 287 298 292 303 277 239 284 346 301 324 298 292 285 239 221 274 257 240 242 277 246 255 256 262 255 247 177 189 167 239 233 268 281
4 279 179 280 299 249 252 292 336 319 313 298 296 296 298 298 290 290 292 310 306 272 256 287 272 265 234 222 248 213 234 231 253 238 265 280 260 47 107 98 137 236 254 278 291
318 290 358 325 264 224 269 14 349 290 286 278 274 282 287 295 293 297 300 304 314 312 299 289 284 271 268 239 251 247 237 263 242 238 237 259 273 279 241 93 83 258 252 281 294
312 298 312 327 291 326 321 306 290 285 296 298 297 297 300 296 297 293 322 8 327 312 17 338 287 292 279 268 218 250 250 240 214 257 258 256 253 8 168 216 236 261 288 284 268
315 312 325 316 319 313 329 299 298 271 293 293 293 296 291 277 288 261 278 332 290 288 90 297 285 272 279 304 213 253 290 282 269 268 271 262 268 259 255 296 290 293 293 288 289
324 17 6 307 333 325 299 295 294 310 286 305 289 260 297 304 297 297 300 283 202 261 258 246 270 279 284 272 263 250 251 245 253 261 257 268 271 284 291 289 280 301 299 306 293
330 342 326 290 285 295 285 294 307 315 320 296 307 310 316 303 305 303 307 299 286 308 295 268 268 274 284 270 264 265 266 266 256 252 262 265 267 264 263 330 295 277 285 294 291
337 299 299 294 275 289 319 322 310 315 294 271 309 299 291 310 320 302 295 289 279 258 277 289 265 295 280 305 309 270 258 264 295 305 288 284 280 292 293 296 326 330 321 305 294